Regional Weather Roundup
Issued by NWS Charleston, SC

Current Version | Previous Version | Graphics & Text | Print | Product List | Glossary On
Versions: 1 2 3 4 5 6 7 8 9 10 11 12 13 14 15 16 17 18 19 20 21 22 23 24 25 26 27 28 29 30 31 32 33 34 35 36 37 38 39 40 41 42 43 44 45 46 47 48 49 50
000 ASUS42 KCHS 080112 RWRCHS REGIONAL WEATHER ROUNDUP NATIONAL WEATHER SERVICE CHARLESTON SC 900 PM EDT TUE JUL 07 2015 NOTE: "FAIR" INDICATES FEW OR NO CLOUDS BELOW 12,000 FEET WITH NO SIGNIFICANT WEATHER AND/OR OBSTRUCTIONS TO VISIBILITY. NOT ALL STATIONS ARE QUALITY CONTROLLED BY THE NATIONAL WEATHER SERVICE. USE DATA WITH CAUTION...ESPECIALLY DEWPOINT OBSERVATIONS. SCZ027-030-031-034>040-042>050-080200- ...SOUTHEAST SOUTH CAROLINA... CITY SKY/WX TMP DP RH WIND PRES REMARKS N CHARLESTON MOCLDY 78 74 87 S6 30.13R WATERFRONT PAR N/A 81 76 85 SW7 30.10R MOUNT PLEASANT FAIR 81 75 83 S6 30.13R JOHNS ISLAND FAIR 81 75 83 S8 30.13R PINOPOLIS NOT AVBL MONCKS CORNER FAIR 79 73 83 SW3 30.12R SUMMERVILLE FAIR 77 77 100 CALM 30.14R BEAUFORT MCAS CLOUDY 79 73 82 S5 30.13R BEAUFORT ARPT FAIR 79 75 89 S3 30.13R FOG HILTON HEAD IS MOCLDY 79 75 89 S6 30.15R WALTERBORO MOCLDY 77 72 83 S5 30.14R ALLENDALE FAIR 81 73 78 S3 30.12R ...SOUTHERN MIDLANDS AND PEE DEE... CITY SKY/WX TMP DP RH WIND PRES REMARKS GEORGETOWN NOT AVBL KINGSTREE NOT AVBL ORANGEBURG CLEAR 78 71 79 S5 30.12R BARNWELL FAIR 82 73 74 S5 30.12R AIKEN NOT AVBL MANNING FAIR 79 70 73 S3 30.12R COLUMBIA PTCLDY 85 71 63 S9 30.09R HX 90 SUMTER CLEAR 81 72 74 S7 30.09R FLORENCE PTCLDY 82 73 74 S8 30.10R MYRTLE BEACH CLEAR 82 73 74 SW9 30.13R N MYRTLE BEACH PTCLDY 82 74 76 SW15 30.12R $$ GAZ063-065-086>088-099>101-113>116-118-119-134>141-150-080200- ...SOUTHEAST GEORGIA... CITY SKY/WX TMP DP RH WIND PRES REMARKS SAVANNAH ARPT CLOUDY 77 73 87 CALM 30.14R HUNTER AAF CLOUDY 79 76 90 S5 30.11R FORT STEWART CLOUDY 74 69 83 S2 30.12R STATESBORO NOT AVBL SYLVANIA PTCLDY 82 74 78 S3 30.14R CLAXTON FAIR 79 72 78 CALM 30.13R ...CSRA...CENTRAL AND FAR SOUTHEAST GEORGIA... CITY SKY/WX TMP DP RH WIND PRES REMARKS THOMSON PTCLDY 82 79 90 CALM 30.16R HX 92 AUGUSTA-BUSH PTCLDY 80 74 81 S3 30.09R AUGUSTA-DANIEL PTCLDY 87 69 54 CALM 30.12R HX 91 SWAINSBORO FAIR 82 77 83 CALM 30.13R HX 91 VIDALIA PTCLDY 82 72 69 SE6 30.14R EASTMAN FAIR 81 76 83 CALM 30.15R HAZLEHURST FAIR 84 74 71 SE5 30.13R HX 90 ALMA MOCLDY 82 72 71 SE12G17 30.15R WAYCROSS MOCLDY 84 76 77 SE8 30.15R HX 93 JESUP FAIR 77 73 88 SW3 30.15R BAXLEY FAIR 81 72 74 S8 30.14R BRUNSWICK MOCLDY 77 72 83 CALM 30.15S SAINT SIMONS MOCLDY 80 73 79 VRB7 30.14S $$ SCZ027-028-034-036>038-045-046-048>050-GAZ119-141-080200- ...LAKE AND SUPPLEMENTAL COASTAL OBSERVATIONS... STATION/POSITION TIME TEMP WIND PRES WAVE SWELL AIR SEA DIR/SP/G HT/PER HT/PER/DIR (UTC) (F) (DEG/KT/KT) (MB) (FT/S) (FT/S/D) UPR LAKE MARION NOT AVBL WINYAH BAY NOT AVBL LAKE MURRAY 0000 88 260/ 7/ 9 1017.9R ACE BASIN NERRS NOT AVBL FORT PULASKI 0000 81 84 180/ 6/ 10 1020.6R SAPELO ISLAND 0000 80 190/ 5 1020.0S $$ ANZ835-935-AMZ111-154-330-350-352-354-370-450-454-472-080200- ...C-MAN AND BUOY OBSERVATIONS... STATION/POSITION TIME TEMP WIND PRES WAVE SWELL AIR SEA DIR/SP/G HT/PER HT/PER/DIR (UTC) (F) (DEG/KT/KT) (MB) (FT/S) (FT/S/D) BUOY 41004 0050 82 83 200/ 12/ 14 1020.0R 3/ 8 2/ 8 BUOY 41008 0050 79 80 190/ 10/ 10 1020.8S 2/ 9 2/100/ 9 FOLLY BEACH CMAN 0000 81 190/ 12/ 14 1020.0S CAPERS NEARSHORE 0008 81 210/ 12/ 16 1020.2F FRIPP NEARSHORE 0000 81 200/ 14/ 16 1019.9R STATION/POSITION TIME TEMP WIND PRES WAVE SWELL AIR SEA DIR/SP/G HT/PER HT/PER/DIR (UTC) (F) (DEG/KT/KT) (MB) (FT/S) (FT/S/D) 5E ST. MARYS GA 0021 79 N/A 2/ 9 2/110/13 FRYING PAN BUOY 0050 82 80 210/ 10/ 14 1020.8R 3/ 8 2/160/ 8 BUOY 41025 0050 82 83 220/ 17/ 19 1019.6R 3/ 8 2/130/ 8 CAPE LOOKOUT NC 0000 81 210/ 10/ 13 1019.5R BUOY 41002 0050 82 81 200/ 10/ 12 1022.5R 4/ 8 3/130/ 8 BUOY 41010 0020 83 83 170/ 6/ 8 1021.2F ST AUGUSTINE FL 0100 79 76 CALM / 1 1021.6S $$

USA.gov is the U.S. government's official web portal to all federal, state and local government web resources and services.